Terug naar catalogus

COSMOS 839 DEB

ActiefUNKNOWN
NORAD 10621·DEBRIS·🇷🇺 Russia

Gelanceerd Jul 8, 1976 vanaf Plesetsk Cosmodrome

Loading…

Volgende Passages (komende 24 uur)

TLE

VersSource: Space-Track

Epoch: Sep 14, 2026, 16:40 UTC

1 10621U 76067AV  26257.69450523 -.00000007  00000-0  18613-3 0  9992
2 10621  66.0249 138.8662 0668596 181.3299 209.2943 12.31133757254942

Volg COSMOS 839 DEB in realtime met AllMySat

Download on the App Store